Vinton, IA

12:40 PM CDT on August 28, 2016 (GMT -0500)
Vinton-Veterans Memorial

Weather History for KVTI - May, 2013

Change the Weather History Date:

Tuesday, May 21, 2013

  Actual Average Record
Temperature  
Mean Temperature 67 °F -  
Max Temperature 75 °F 75 °F 90 °F (1964)
Min Temperature 60 °F 49 °F 36 °F (1993)
Cooling Degree Days 2    
Growing Degree Days 17 (Base 50)    
Moisture  
Dew Point 56 °F    
Average Humidity 72    
Maximum Humidity 90    
Minimum Humidity 50    
Precipitation  
Precipitation 0.00 in - - ()
Sea Level Pressure  
Sea Level Pressure 29.65 in    
Wind  
Wind Speed 10 mph (SW)    
Max Wind Speed 18 mph    
Max Gust Speed 28 mph    
Visibility 10 miles    
Events      
Averages and records for this station are not official NWS values.
T = Trace of Precipitation, MM = Missing Value Source: NWS Daily Summary

Daily Weather History Graph

Daily Weather History Graph

Search for Another Location

Airport or City:

Trip Planner

Search our weather history database for the weather conditions in past years. The results will help you decide how hot, cold, wet, or windy it might be!

Date:

Astronomy

May. 21, 2013 Rise Set
Actual Time 5:41 AM CDT 8:28 PM CDT
Civil Twilight 5:08 AM CDT 9:01 PM CDT
Nautical Twilight 4:27 AM CDT 9:42 PM CDT
Astronomical Twilight 3:39 AM CDT 10:30 PM CDT
Moon 4:39 PM CDT (5/21) 3:13 AM CDT (5/21)
Length of Visible Light 15h 52m
Length of Day
14h 47m
Waxing Gibbous, 84% of the Moon is Illuminated
May 21
Waxing Gibbous
May 24
Full
May 31
Last Quarter
Jun 8
New
Jun 16
First Quarter

Hourly Weather History & Observations

Time (CDT) Temp. Dew Point Humidity Pressure Visibility Wind Dir Wind Speed Gust Speed Precip Events Conditions
12:15 AM 62.6 °F 57.6 °F 84% 29.60 in 10.0 mi SSE 11.5 mph - N/A   Scattered Clouds
12:35 AM 62.6 °F 58.3 °F 86% 29.61 in 10.0 mi SSE 9.2 mph - N/A   Clear
12:55 AM 61.3 °F 57.6 °F 87% 29.60 in 10.0 mi SSE 10.4 mph - N/A   Clear
1:15 AM 62.2 °F 58.1 °F 86% 29.61 in 10.0 mi SSE 8.1 mph - N/A   Clear
1:35 AM 61.3 °F 57.6 °F 87% 29.61 in 10.0 mi SE 8.1 mph - N/A   Clear
1:55 AM 61.3 °F 57.7 °F 88% 29.61 in 10.0 mi SSE 8.1 mph - N/A   Clear
2:15 AM 62.4 °F 59.0 °F 89% 29.60 in 10.0 mi South 9.2 mph - N/A   Clear
2:35 AM 62.6 °F 59.0 °F 88% 29.59 in 10.0 mi South 9.2 mph - N/A   Clear
2:55 AM 62.6 °F 58.8 °F 87% 29.59 in 10.0 mi South 9.2 mph - N/A   Clear
3:15 AM 62.6 °F 57.7 °F 84% 29.59 in 10.0 mi South 9.2 mph - N/A   Clear
3:35 AM 61.3 °F 56.3 °F 83% 29.59 in 10.0 mi SSW 10.4 mph - N/A   Clear
3:55 AM 61.3 °F 56.7 °F 85% 29.58 in 10.0 mi South 10.4 mph - N/A   Clear
4:15 AM 61.3 °F 57.2 °F 86% 29.59 in 10.0 mi South 9.2 mph - N/A   Clear
4:35 AM 61.3 °F 56.8 °F 85% 29.59 in 10.0 mi South 11.5 mph - N/A   Clear
4:55 AM 61.3 °F 57.2 °F 86% 29.59 in 10.0 mi South 12.7 mph 17.3 mph N/A   Clear
5:15 AM 61.3 °F 57.4 °F 87% 29.60 in 10.0 mi South 13.8 mph 18.4 mph N/A   Clear
5:35 AM 61.3 °F 58.1 °F 89% 29.61 in 10.0 mi South 12.7 mph 19.6 mph N/A   Clear
5:55 AM 61.3 °F 58.5 °F 90% 29.61 in 7.0 mi South 15.0 mph 23.0 mph N/A   Mostly Cloudy
6:15 AM 61.3 °F 58.5 °F 90% 29.61 in 5.0 mi SSW 13.8 mph 19.6 mph N/A   Mostly Cloudy
6:35 AM 62.6 °F 59.0 °F 88% 29.61 in 7.0 mi SSW 13.8 mph 19.6 mph N/A   Scattered Clouds
6:55 AM 62.6 °F 58.3 °F 86% 29.62 in 10.0 mi SW 12.7 mph 21.9 mph N/A   Clear
7:15 AM 62.6 °F 57.7 °F 84% 29.62 in 10.0 mi SW 10.4 mph 18.4 mph N/A   Clear
7:35 AM 63.1 °F 57.2 °F 81% 29.63 in 10.0 mi SW 15.0 mph - N/A   Clear
7:55 AM 63.1 °F 55.9 °F 77% 29.62 in 10.0 mi SW 13.8 mph 20.7 mph N/A   Clear
8:15 AM 63.5 °F 55.8 °F 76% 29.63 in 10.0 mi SW 13.8 mph - N/A   Scattered Clouds
8:35 AM 63.5 °F 55.6 °F 75% 29.64 in 10.0 mi WSW 15.0 mph 20.7 mph N/A   Scattered Clouds
8:55 AM 62.8 °F 55.6 °F 77% 29.65 in 10.0 mi WSW 13.8 mph - N/A   Overcast
9:15 AM 63.1 °F 55.8 °F 77% 29.65 in 10.0 mi WSW 10.4 mph 16.1 mph N/A   Overcast
9:35 AM 63.0 °F 55.8 °F 77% 29.65 in 10.0 mi West 10.4 mph - N/A   Overcast
9:55 AM 62.6 °F 55.8 °F 78% 29.67 in 10.0 mi WSW 8.1 mph - N/A   Overcast
10:15 AM 62.6 °F 54.9 °F 76% 29.67 in 10.0 mi West 9.2 mph - N/A   Overcast
10:35 AM 62.6 °F 54.7 °F 75% 29.68 in 10.0 mi WSW 10.4 mph - N/A   Overcast
10:55 AM 65.3 °F 55.9 °F 72% 29.68 in 10.0 mi WSW 10.4 mph - N/A   Mostly Cloudy
11:15 AM 65.3 °F 54.3 °F 68% 29.67 in 10.0 mi SW 18.4 mph 24.2 mph N/A   Mostly Cloudy
11:35 AM 65.3 °F 54.1 °F 67% 29.68 in 10.0 mi WSW 13.8 mph 18.4 mph N/A   Overcast
11:55 AM 65.7 °F 54.7 °F 68% 29.68 in 10.0 mi SW 12.7 mph 18.4 mph N/A   Mostly Cloudy
12:15 PM 65.8 °F 54.3 °F 66% 29.68 in 10.0 mi SW 15.0 mph - N/A   Scattered Clouds
12:35 PM 70.2 °F 56.8 °F 63% 29.69 in 10.0 mi SW 17.3 mph 21.9 mph N/A   Scattered Clouds
12:55 PM 70.2 °F 54.9 °F 58% 29.68 in 10.0 mi WSW 10.4 mph 20.7 mph N/A   Scattered Clouds
1:15 PM 70.2 °F 55.8 °F 60% 29.69 in 10.0 mi WSW 11.5 mph 18.4 mph N/A   Mostly Cloudy
1:35 PM 70.2 °F 54.7 °F 58% 29.68 in 10.0 mi SSW 15.0 mph 20.7 mph N/A   Scattered Clouds
1:55 PM 70.2 °F 52.5 °F 53% 29.68 in 10.0 mi WSW 13.8 mph 27.6 mph N/A   Scattered Clouds
2:15 PM 70.2 °F 52.7 °F 54% 29.68 in 10.0 mi SW 13.8 mph - N/A   Scattered Clouds
2:35 PM 71.6 °F 52.9 °F 52% 29.68 in 10.0 mi SW 13.8 mph 19.6 mph N/A   Scattered Clouds
2:55 PM 71.8 °F 52.9 °F 51% 29.68 in 10.0 mi SW 15.0 mph 20.7 mph N/A   Scattered Clouds
3:15 PM 70.3 °F 51.3 °F 51% 29.68 in 10.0 mi SW 18.4 mph - N/A   Scattered Clouds
3:35 PM 70.2 °F 51.8 °F 52% 29.68 in 10.0 mi WSW 13.8 mph 19.6 mph N/A   Scattered Clouds
3:55 PM 74.8 °F 54.9 °F 50% 29.68 in 10.0 mi WSW 10.4 mph - N/A   Scattered Clouds
4:15 PM 70.5 °F 51.4 °F 51% 29.68 in 10.0 mi SW 11.5 mph - N/A   Scattered Clouds
4:35 PM 70.2 °F 52.3 °F 53% 29.68 in 10.0 mi SW 10.4 mph - N/A   Scattered Clouds
4:55 PM 70.2 °F 53.1 °F 55% 29.68 in 10.0 mi WSW 6.9 mph - N/A   Scattered Clouds
5:15 PM 70.2 °F 54.0 °F 56% 29.68 in 10.0 mi West 8.1 mph - N/A   Scattered Clouds
5:35 PM 70.2 °F 54.1 °F 57% 29.67 in 10.0 mi WNW 5.8 mph - N/A   Scattered Clouds
5:55 PM 70.2 °F 53.8 °F 56% 29.67 in 10.0 mi WNW 8.1 mph - N/A   Scattered Clouds
6:15 PM 70.2 °F 54.9 °F 58% 29.68 in 10.0 mi West 5.8 mph - N/A   Scattered Clouds
6:35 PM 70.2 °F 54.3 °F 57% 29.67 in 10.0 mi WNW 3.5 mph - N/A   Scattered Clouds
6:55 PM 70.2 °F 54.5 °F 57% 29.67 in 10.0 mi WNW 3.5 mph - N/A   Scattered Clouds
7:15 PM 70.2 °F 55.8 °F 60% 29.68 in 10.0 mi Calm Calm - N/A   Scattered Clouds
7:35 PM 70.2 °F 56.1 °F 61% 29.68 in 10.0 mi Calm Calm - N/A   Scattered Clouds
7:55 PM 70.2 °F 56.7 °F 62% 29.68 in 10.0 mi Calm Calm - N/A   Scattered Clouds
8:15 PM 67.6 °F 55.8 °F 66% 29.69 in 10.0 mi Calm Calm - N/A   Mostly Cloudy
8:35 PM 65.7 °F 52.5 °F 62% 29.69 in 10.0 mi West 4.6 mph - N/A   Scattered Clouds
8:55 PM 65.3 °F 53.1 °F 65% 29.68 in 10.0 mi Calm Calm - N/A   Scattered Clouds
9:15 PM 65.3 °F 53.2 °F 65% 29.68 in 10.0 mi Calm Calm - N/A   Scattered Clouds
9:35 PM 63.1 °F 53.1 °F 70% 29.69 in 10.0 mi Calm Calm - N/A   Mostly Cloudy
9:55 PM 62.6 °F 53.8 °F 73% 29.69 in 10.0 mi Calm Calm - N/A   Mostly Cloudy
10:15 PM 61.3 °F 54.1 °F 77% 29.69 in 10.0 mi Calm Calm - N/A   Scattered Clouds
10:35 PM 61.2 °F 55.0 °F 80% 29.69 in 10.0 mi Calm Calm - N/A   Scattered Clouds
10:55 PM 60.1 °F 54.7 °F 82% 29.69 in 10.0 mi Calm Calm - N/A   Scattered Clouds
11:15 PM 60.1 °F 55.6 °F 85% 29.69 in 10.0 mi Calm Calm - N/A   Mostly Cloudy
11:35 PM 60.1 °F 55.6 °F 85% 29.68 in 10.0 mi Calm Calm - N/A   Mostly Cloudy
11:55 PM 60.1 °F 54.1 °F 81% 29.68 in 10.0 mi West 4.6 mph - N/A   Mostly Cloudy